Flag for Brazil Weather past 2 weeks in Rio de Janeiro, Rio de Janeiro, Brazil

Now
79 °F

More clouds than sun.


Feels Like: 82 °F
Forecast: 77 / 84 °F
Wind: 5 mph from Northwest

Location: Rio De Janeiro Airport

Current Time: Apr 19, 2015 at 10:51:04 AM

Latest Report: Apr 19, 2015 at 10:00 AM


Visibility: 4 mi

Pressure: 29.95 "Hg

Humidity: 89%

Dew point: 75 °F

Location of Rio de JaneiroLocation

Historic Weather in Rio de Janeiro — Graph

°F

Rio de Janeiro temperature yesterday

Maximum temperature yesterday: 82 °F (at 2:00 PM)
Minimum temperature yesterday: 73 °F (at 6:00 AM)
Average temperature yesterday: 80 °F

Past Weeks' High & Low Weather Summary

 TemperatureHumidityPressure
High91 °F (Apr 6, 11:00 AM)94% (Apr 7, 6:00 AM)30.12 "Hg (Apr 7, 6:00 AM)
Low68 °F (Apr 8, 6:00 AM)49% (Apr 6, 11:00 AM)29.65 "Hg (Apr 6, 6:00 AM)
Average78 °F76%29.96 "Hg
* Reported Apr 4 9:00 AM — Apr 19 9:00 AM, Rio de Janeiro, Weather by CustomWeather, © 2015

Note: Actual official high and low records may vary slightly from our data, if they occured in-between our weather recording intervals... More about our weather records

Advertising

Rio de Janeiro weather history for previous 24 hours

 ConditionsComfort  
Time TempWeatherWind HumidityBarometerVisibility
9:00 AM
Sun, Apr 19
79 °FBroken clouds.7 mph89%29.95 "Hg6 mi
8:00 AM79 °FPartly sunny.8 mph89%29.92 "Hg4 mi
7:00 AM77 °FFog.1 mph94%29.89 "Hg3 mi
6:00 AM77 °FPartly sunny.6 mph94%29.86 "Hg4 mi
11:00 PM
Sat, Apr 18
79 °FClear.6 mph84%29.89 "Hg10 mi
10:00 PM79 °FClear.7 mph84%29.89 "Hg10 mi
9:00 PM81 °FClear.No wind74%29.89 "Hg10 mi
8:00 PM81 °FClear.1 mph74%29.89 "Hg10 mi
7:00 PM81 °FClear.5 mph74%29.86 "Hg10 mi
6:00 PM81 °FClear.7 mph74%29.86 "Hg10 mi
5:00 PM82 °FClear.9 mph74%29.83 "Hg10 mi
4:00 PM82 °FSunny.10 mph74%29.86 "Hg10 mi
3:00 PM81 °FSunny.13 mph79%29.86 "Hg10 mi
2:00 PM82 °FSunny.8 mph74%29.86 "Hg10 mi
1:00 PM81 °FSunny.10 mph74%29.89 "Hg10 mi
12:00 PM81 °FSunny.8 mph74%29.92 "Hg10 mi
11:00 AM81 °FPassing clouds.2 mph74%29.95 "HgN/A
10:00 AM79 °FPassing clouds.5 mph79%29.98 "HgN/A
Weather by CustomWeather, © 2015

See weather overviewHow to use our weather pages